Les Arcs, France 16 day weather forecast

Slopes altitude range 1200 m - 3225m

Number of lifts: 54 Pistes: 200km

In some cases the lift and piste totals shown are for the ski domain (e.g. Three Valleys) rather than individual resort (e.g. Courchevel)

Overview

The 16 day weather forecast is fully updated 4 times every day.

    • Wed 26 JUN 2019
    • Wed 26
    • 21C 30C
    • Thu 27 JUN 2019
    • Thu 27
    • 21C 31C
    • Fri 28 JUN 2019
    • Fri 28
    • 21C 29C
    • Sat 29 JUN 2019
    • Sat 29
    • 19C 28C
    • Sun 30 JUN 2019
    • Sun 30
    • 19C 28C
    • Mon 01 JUL 2019
    • Mon 01
    • 20C 29C
    • Tue 02 JUL 2019
    • Tue 02
    • 18C 25C
    • Wed 03 JUL 2019
    • Wed 03
    • 17C 24C
    • Thu 04 JUL 2019
    • Thu 04
    • 14C 20C
    • Fri 05 JUL 2019
    • Fri 05
    • 15C 20C
    • Sat 06 JUL 2019
    • Sat 06
    • 10C 13C
    • Sun 07 JUL 2019
    • Sun 07
    • 11C 20C
    • Mon 08 JUL 2019
    • Mon 08
    • 16C 23C
    • Tue 09 JUL 2019
    • Tue 09
    • 15C 20C
    • Wed 10 JUL 2019
    • Wed 10
    • 15C 18C
    • Thu 11 JUL 2019
    • Thu 11
    • 15C 22C

Date:

Time Type 0°C level Temp Chill Snow Cloud Speed Gust Dir Press
3:00 4636m 17°C 17_5 0cm 11% 5mph 5mph 1025mB
6:00 4606m 16°C 16_4 0cm 5% 4mph 4mph 1025mB
9:00 4610m 21°C 21_2 0cm 0% 2mph 1mph 1024mB
12:00 4641m 30°C 30_5 0cm 0% 5mph 4mph 1024mB
15:00 4696m 30°C 30_5 0cm 0% 5mph 5mph 1023mB
18:00 4628m 30°C 30_2 0cm 0% 2mph 3mph 1024mB
21:00 4695m 16°C 16_7 0cm 4% 7mph 7mph 1026mB
0:00 4709m 15°C 15_5 0cm 52% 5mph 5mph 1025mB
3:00 4673m 16°C 16_5 0cm 2% 5mph 5mph 1024mB
6:00 4596m 16°C 16_4 0cm 1% 4mph 4mph 1024mB
9:00 4597m 21°C 21_3 0cm 0% 3mph 3mph 1023mB
12:00 4612m 31°C 31_5 0cm 0% 5mph 8mph 1021mB
15:00 4594m 31°C 31_6 0cm 0% 6mph 8mph 1020mB
18:00 4689m 31°C 31_3 0cm 0% 3mph 4mph 1019mB
21:00 4695m 19°C 19_4 0cm 0% 4mph 5mph 1021mB
0:00 4667m 18°C 18_4 0cm 0% 4mph 5mph 1020mB
3:00 4605m 17°C 17_5 0cm 0% 5mph 5mph 1020mB
6:00 4582m 16°C 16_4 0cm 0% 4mph 4mph 1019mB
9:00 4595m 21°C 21_3 0cm 0% 3mph 4mph 1018mB
12:00 4691m 29°C 29_5 0cm 0% 5mph 8mph 1016mB
15:00 4725m 30°C 30_7 0cm 0% 7mph 9mph 1015mB
18:00 4789m 30°C 30_3 0cm 0% 3mph 4mph 1016mB
21:00 4875m 17°C 17_3 0cm 0% 3mph 4mph 1018mB
0:00 4863m 16°C 16_4 0cm 0% 4mph 4mph 1018mB
3:00 4866m 15°C 15_4 0cm 0% 4mph 5mph 1018mB
6:00 4860m 15°C 15_4 0cm 0% 4mph 4mph 1018mB
9:00 4866m 19°C 19_4 0cm 0% 4mph 4mph 1018mB
12:00 4857m 28°C 28_6 0cm 0% 6mph 4mph 1017mB
15:00 4852m 28°C 28_5 0cm 0% 5mph 4mph 1017mB
18:00 4832m 28°C 28_2 0cm 0% 2mph 3mph 1017mB
21:00 4787m 17°C 17_4 0cm 0% 4mph 5mph 1020mB
0:00 4832m 16°C 16_4 0cm 0% 4mph 5mph 1020mB
3:00 4752m 15°C 15_4 0cm 0% 4mph 4mph 1020mB
6:00 4697m 14°C 14_3 0cm 0% 3mph 3mph 1020mB
9:00 4694m 19°C 19_3 0cm 0% 3mph 3mph 1020mB
12:00 4704m 28°C 28_5 0cm 0% 5mph 5mph 1019mB
15:00 4671m 28°C 28_4 0cm 0% 4mph 5mph 1018mB
18:00 4584m 28°C 28_2 0cm 0% 2mph 3mph 1018mB
21:00 4554m 18°C 18_4 0cm 0% 4mph 5mph 1020mB
0:00 4538m 17°C 17_4 0cm 5% 4mph 5mph 1020mB
3:00 4511m 16°C 16_4 0cm 73% 4mph 4mph 1019mB
6:00 4443m 16°C 16_1 0cm 53% 1mph 1mph 1020mB
9:00 4438m 20°C 20_2 0cm 0% 2mph 1mph 1019mB
12:00 4454m 29°C 29_5 0cm 24% 5mph 4mph 1017mB
15:00 4474m 28°C 28_5 0cm 0% 5mph 4mph 1016mB
18:00 4455m 28°C 28_4 0cm 17% 4mph 5mph 1017mB
21:00 4224m 16°C 16_7 0cm 100% 7mph 7mph 1020mB
0:00 4313m 14°C 14_5 0cm 100% 5mph 5mph 1019mB
3:00 4264m 13°C 13_4 0cm 50% 4mph 4mph 1018mB
6:00 4240m 13°C 13_1 0cm 25% 1mph 1mph 1018mB
9:00 4215m 18°C 18_4 0cm 90% 4mph 2mph 1017mB
12:00 4255m 25°C 25_6 0cm 74% 6mph 5mph 1016mB
15:00 4283m 25°C 25_4 0cm 86% 4mph 5mph 1016mB
18:00 4170m 25°C 25_3 0cm 93% 3mph 4mph 1016mB
21:00 4136m 14°C 14_4 0cm 100% 4mph 5mph 1018mB
0:00 4065m 13°C 13_2 0cm 100% 2mph 2mph 1018mB
3:00 3992m 12°C 12_2 0cm 100% 2mph 3mph 1017mB
6:00 3946m 12°C 12_2 0cm 84% 2mph 2mph 1018mB
9:00 3983m 17°C 17_4 0cm 100% 4mph 3mph 1017mB
12:00 4104m 24°C 24_5 0cm 92% 5mph 4mph 1016mB
15:00 4098m 18°C 18_3 0cm 97% 3mph 5mph 1016mB
18:00 4143m 18°C 18_2 0cm 98% 2mph 3mph 1016mB
21:00 4022m 11°C 11_4 0cm 100% 4mph 5mph 1018mB
0:00 3985m 11°C 11_7 0cm 99% 7mph 8mph 1018mB
3:00 4021m 10°C 10_7 0cm 44% 7mph 8mph 1018mB
6:00 3996m 9°C 9_3 0cm 27% 3mph 3mph 1018mB
9:00 4041m 14°C 14_4 0cm 19% 4mph 4mph 1017mB
12:00 4055m 20°C 20_5 0cm 45% 5mph 5mph 1017mB
15:00 4065m 20°C 20_5 0cm 54% 5mph 5mph 1016mB
18:00 4140m 20°C 20_3 0cm 49% 3mph 4mph 1016mB
21:00 4077m 11°C 11_4 0cm 20% 4mph 5mph 1018mB
0:00 4177m 10°C 10_6 0cm 40% 6mph 7mph 1018mB
3:00 4096m 10°C 10_7 0cm 47% 7mph 9mph 1018mB
6:00 4015m 10°C 10_7 0cm 73% 7mph 8mph 1018mB
9:00 3972m 15°C 15_5 0cm 44% 5mph 9mph 1018mB
12:00 4042m 20°C 20_6 0cm 27% 6mph 8mph 1017mB
15:00 4119m 20°C 20_6 0cm 49% 6mph 9mph 1016mB
18:00 4183m 20°C 20_5 0cm 61% 5mph 6mph 1017mB
21:00 4151m 10°C 10_8 0cm 100% 8mph 9mph 1020mB
0:00 3999m 10°C 10_7 0cm 62% 7mph 8mph 1020mB
Afternoon 0.125mm 0.3125 3837m 13°C 13_5 0cm 94% 5mph 5mph 1019mB
Morning 0mm 0 4606m 5°C 5_4 0cm 2% 4mph 5mph 1022mB
Afternoon 0mm 0 4569m 20°C 20_6 0cm 0% 6mph 6mph 1020mB
Morning 0mm 0 4497m 11°C 11_6 0cm 17% 6mph 7mph 1020mB
Afternoon 0mm 0.0625 4431m 23°C 23_5 0cm 27% 5mph 6mph 1016mB
Morning 0.0625mm 0.1875 4395m 12°C 12_6 0cm 18% 6mph 7mph 1018mB
Afternoon 0.1875mm 0.5625 4286m 20°C 20_4 0cm 2% 4mph 5mph 1016mB
Morning 0.770833mm 2.3125 4197m 11°C 11_1 0cm 81% 1mph 2mph 1019mB
Afternoon 0.791667mm 2.4375 4176m 18°C 18_4 0cm 90% 4mph 4mph 1016mB
Morning 0.0625mm 0.1875 4156m 11°C 11_5 0cm 67% 5mph 6mph 1016mB
Afternoon 0.166667mm 0.4375 4129m 22°C 22_6 0cm 66% 6mph 7mph 1012mB
Morning 0.895833mm 1.125 3755m 9°C 9_3 0cm 90% 3mph 4mph 1011mB

16 day outlook at a glance

Forecast issued: 6/26/2019 7:47:14 AM

Chat

Your comments and questions. In a resort? Let us know what it's like!


Characters left 250

For terms and conditions see Readers Comments on the Cookie and privacy policy page.